Regional Weather Roundup
Issued by NWS

Home | Current Version | Previous Version | Graphics & Text | Print | Product List | Glossary On
Versions: 1 2 3 4 5 6 7 8 9 10 11 12 13 14 15 16 17 18 19 20 21 22 23 24 25 26 27 28 29 30 31 32 33 34 35 36 37 38 39 40 41 42 43 44 45 46 47 48 49 50
931
ASUS44 KMEG 240510
RWRTN
TENNESSEE HOURLY STATE WEATHER ROUNDUP
NATIONAL WEATHER SERVICE MEMPHIS TN
1100 PM CST FRI FEB 23 2018

TNZ002-004-019-021-049-052-054-088>092-240600-
WEST TENNESSEE

CITY           SKY/WX    TMP DP  RH WIND       PRES   REMARKS
MEMPHIS INTL   CLOUDY    59  58  96 E7        30.13F
NWS MEMPHIS      N/A     58 N/A N/A MISG        N/A
JACKSON        LGT RAIN  59  59 100 NE6       30.15F FOG
DYERSBURG      CLOUDY    56  54  93 N5        30.15F
COVINGTON      CLOUDY    57  57 100 E5        30.14F
UNION CITY     CLOUDY    55  54  94 NE6       30.15F
BOLIVAR        CLOUDY    61  61 100 E5        30.13F FOG
PARIS          CLOUDY    57  57 100 CALM      30.16F FOG
LEXINGTON      CLOUDY    61  61 100 CALM      30.16F FOG
SELMER         CLOUDY    63  63 100 CALM      30.15F FOG
SAVANNAH       CLOUDY    63  63 100 SE3       30.15F
$$

TNZ008-025-027-028-033-062-065-066-240600-
NORTH MIDDLE TENNESSEE

CITY           SKY/WX    TMP DP  RH WIND       PRES   REMARKS
NASHVILLE      CLOUDY    62  59  90 N8        30.18R
PORTLAND       CLOUDY    57  57 100 CALM      30.18F FOG
CLARKSVILLE    CLOUDY    58  55  90 CALM      30.18F
SMYRNA         MOCLDY    62  58  86 CALM      30.18S
COOKEVILLE     MOCLDY    66  55  68 S6        30.18F
GALLATIN       CLOUDY    61  59  94 N5        30.19F
CROSSVILLE     FAIR      66  55  67 VRB6      30.23F
$$

TNZ061-075-076-078-094-096-097-240600-
SOUTH MIDDLE TENNESSEE

CITY           SKY/WX    TMP DP  RH WIND       PRES   REMARKS
FAYETTEVILLE   PTCLDY    66  55  68 S7        30.18F
TULLAHOMA      CLOUDY    64  54  68 S3        30.18F
WINCHESTER     CLEAR     66  55  68 CALM      30.20S
MCMINNVILLE    CLOUDY    66  55  68 CALM      30.19S
COLUMBIA       CLOUDY    66  61  82 SW9       30.15F
SHELBYVILLE    CLOUDY    64  55  72 S3        30.18F
$$

TNZ017-018-042-046-047-240600-
NORTHEAST TENNESSEE

CITY           SKY/WX    TMP DP  RH WIND       PRES   REMARKS
TRI CITIES     FAIR      62  54  74 CALM      30.24F
ELIZABETHTON   MOCLDY    59  54  82 E5        30.26S
$$

TNZ012-013-036-069-073-074-240600-
CENTRAL EAST TENNESSEE

CITY           SKY/WX    TMP DP  RH WIND       PRES   REMARKS
KNOXVILLE      CLOUDY    65  55  70 CALM      30.20F
OAK RIDGE      FAIR      66  58  75 CALM      30.22F
DOWNTOWN KNOXV CLEAR     57  55  94 CALM      30.21F
GATLINBURG     PTCLDY    61  52  72 CALM      30.21F
JACKSBORO      PTCLDY    59  55  88 CALM      30.24F
$$

TNZ083-085-099-240600-
SOUTHEAST TENNESSEE

CITY           SKY/WX    TMP DP  RH WIND       PRES   REMARKS
CHATTANOOGA    MOCLDY    67  57  70 CALM      30.21F
$$

SKY/WX REPORTED AS FAIR MEANS FEW OR NO CLOUDS BELOW
12 THOUSAND FEET.





USA.gov is the U.S. government's official web portal to all federal, state and local government web resources and services.